This demonstration page uses our WeatherBlox Daily Observations layout. Learn more.

Left ArrowRight Arrow

44.89941, -97.11507

Hourly Observations for June 19, 2016

Temp ( °F °C ) Dew Point ( °F °C ) Humidity (%) Winds ( mph kmh ) Pressure ( in mb ) Visibility ( mi km ) Precip ( " mm )
12:53 am 00:53 Clear 73 22.8 67 19.4 81 81 S 14 22 30.03 1017 10 16 0.00 0.00
1:53 am 01:53 Clear 72 22.2 67 19.4 84 84 S 10 17 30.02 1017 10 16 0.00 0.00
2:53 am 02:53 Clear 71 21.7 67 19.4 87 87 S 10 17 30.01 1016 10 16 0.00 0.00
3:53 am 03:53 Clear 71 21.7 68 20 90 90 S 12 19 29.98 1015 10 16 0.00 0.00
4:53 am 04:53 Clear 72 22.2 67 19.4 84 84 S 13 20 29.96 1014 10 16 0.00 0.00
5:53 am 05:53 Sunny 73 22.8 67 19.4 81 81 S 13 20 29.94 1014 10 16 0.00 0.00
6:53 am 06:53 Sunny 74 23.3 66 18.9 76 76 S 14 22 29.92 1013 10 16 0.00 0.00
7:53 am 07:53 Sunny 77 25 68 20 74 74 S 17 28 29.91 1013 10 16 0.00 0.00
8:53 am 08:53 Sunny 81 27.2 68 20 65 65 SSW 22 35 29.91 1013 10 16 0.00 0.00
9:53 am 09:53 Sunny 83 28.3 68 20 61 61 SSW 22 35 29.88 1012 10 16 0.00 0.00
10:53 am 10:53 Sunny 85 29.4 68 20 57 57 SSW 21 33 29.87 1012 10 16 0.00 0.00
11:53 am 11:53 Sunny 87 30.6 69 20.6 55 55 SSW 25 41 29.86 1011 10 16 0.00 0.00
12:53 pm 12:53 Sunny 90 32.2 70 21.1 52 52 SSW 23 37 29.84 1011 10 16 0.00 0.00
1:53 pm 13:53 Sunny 92 33.3 69 20.6 47 47 SSW 23 37 29.84 1011 10 16 0.00 0.00
2:53 pm 14:53 Sunny 94 34.4 70 21.1 46 46 SSW 26 43 29.82 1010 10 16 0.00 0.00
3:53 pm 15:53 Mostly Sunny 94 34.4 68 20 43 43 SW 25 41 29.83 1010 10 16 0.00 0.00
4:53 pm 16:53 Mostly Cloudy 94 34.4 69 20.6 44 44 SW 21 33 29.83 1010 10 16 0.00 0.00
5:53 pm 17:53 Partly Cloudy 92 33.3 69 20.6 47 47 SW 22 35 29.82 1010 10 16 0.00 0.00
6:53 pm 18:53 Mostly Sunny 89 31.7 71 21.7 55 55 WNW 9 15 29.85 1011 10 16 0.00 0.00
7:53 pm 19:53 Cloudy 86 30 70 21.1 59 59 NNW 15 24 29.88 1012 10 16 0.00 0.00
8:53 pm 20:53 Mostly Cloudy 85 29.4 67 19.4 55 55 NNW 13 20 29.91 1013 10 16 0.00 0.00
9:53 pm 21:53 Mostly Clear 81 27.2 63 17.2 54 54 NNW 13 20 29.94 1014 10 16 0.00 0.00
10:53 pm 22:53 Clear 78 25.6 58 14.4 50 50 N 14 22 29.99 1016 10 16 0.00 0.00
11:53 pm 23:53 Clear 75 23.9 50 10 41 41 NNW 14 22 30.02 1017 10 16 0.00 0.00

Powered by AerisWeather